Tracking 18980 objects as of 19-Feb-2018
HD Live streaming from Space Station
objects crossing your sky now

HESSI

Track HESSI now!
10-day predictions
HESSI is classified as:


NORAD ID: 27370
Int'l Code: 2002-004A
Perigee: 474.5 km
Apogee: 492.8 km
Inclination: 38.0 °
Period: 94.1 minutes
Semi major axis: 6854 km
RCS: 2.4114 m2 (large)
Launch date: February 5, 2002
Source: United States (US)
Launch site: Pegasus launched from Eastern Range Air Space (ERAS)

Explore basic physics of particle acceleration and explosive energy release in solar flares.
aabbcc
Your satellite tracking list
Your tracking list is empty




NASA's NSSDC Master Catalog

Two Line Element Set (TLE):
1 27370U 02004A   18049.89402269  .00002474  00000-0  88402-4 0  9990
2 27370  38.0337 343.4702 0013386 246.6996 113.2365 15.29763806884054
Source of the keplerian elements: AFSPC